This is the latest recevied weather packets stored in our database for station/object OE5RBO. If no packets are shown the sender has not sent any weather packets the latest 10 day(s).
| Time | Temp. | Humidity | Pressure | Rain* | Wind** | Luminosity | Snow |
|---|---|---|---|---|---|---|---|
| 1787942995 | 18.89° C | 99% | 1015.3 hPa | 4.57 mm | - | - | - |
| 1787942394 | 18.89° C | 99% | 1015.2 hPa | 4.57 mm | - | - | - |
| 1787941794 | 18.89° C | 99% | 1015.4 hPa | 4.57 mm | - | - | - |
| 1787941194 | 18.89° C | 99% | 1015.5 hPa | 4.57 mm | - | - | - |
| 1787939393 | 19.44° C | 98% | 1014.8 hPa | 4.57 mm | - | - | - |
| 1787938793 | 19.44° C | 98% | 1015.1 hPa | 4.57 mm | - | - | - |
| 1787937592 | 19.44° C | 98% | 1015.6 hPa | 4.57 mm | - | - | - |
| 1787936991 | 20° C | 98% | 1015.8 hPa | 4.57 mm | - | - | - |
| 1787936391 | 20° C | 98% | 1015.8 hPa | 4.57 mm | - | - | - |
| 1787935790 | 20° C | 98% | 1015.8 hPa | 4.57 mm | - | - | - |
| 1787934590 | 20° C | 97% | 1015.8 hPa | 4.57 mm | - | - | - |
| 1787933989 | 20° C | 98% | 1015.8 hPa | 4.57 mm | - | - | - |
| 1787933389 | 20° C | 99% | 1016.1 hPa | 4.57 mm | - | - | - |
| 1787932789 | 19.44° C | 98% | 1015.7 hPa | 4.57 mm | - | - | - |
| 1787931588 | 21.67° C | 88% | 1016.6 hPa | 0 mm | - | - | - |
| 1787930988 | 22.78° C | 81% | 1016.3 hPa | 0 mm | - | - | - |
| 1787930387 | 23.33° C | 82% | 1016.1 hPa | 0 mm | - | - | - |
| 1787929187 | 23.89° C | 81% | 1015.7 hPa | 0 mm | - | - | - |
| 1787928586 | 24.44° C | 82% | 1015.1 hPa | 0 mm | - | - | - |
| 1787927986 | 25° C | 80% | 1014.6 hPa | 0 mm | - | - | - |
| 1787927386 | 25.56° C | 78% | 1014.3 hPa | 0 mm | - | - | - |
| 1787926785 | 26.67° C | 75% | 1014 hPa | 0 mm | - | - | - |
| 1787926185 | 26.67° C | 73% | 1013.9 hPa | 0 mm | - | - | - |
| 1787925585 | 26.67° C | 73% | 1013.5 hPa | 0 mm | - | - | - |
| 1787924986 | 27.22° C | 71% | 1013.2 hPa | 0 mm | - | - | - |
* Rain since midnight (hover to see other rain measurements)
** Current wind speed in m/s (hover to see current wind gust speed)